Tracking 19575 objects as of 19-Feb-2019
HD Live streaming from Space Station
objects crossing your sky now

TITAN 3A TRANSTAGE R/B

Track TITAN 3A TRANSTAGE R/B now!
10-day predictions


NORAD ID: 1359
Int'l Code: 1965-034A
Perigee: 2,798.9 km
Apogee: 3,741.0 km
Inclination: 32.1 °
Period: 157.0 minutes
Semi major axis: 9640 km
RCS: 15.4212 m2 (large)
Launch date: May 6, 1965
Source: United States (US)
Launch site: AIR FORCE EASTERN TEST RANGE (AFETR)

Note: This is a ROCKET BODY
aabbcc
Your satellite tracking list
Your tracking list is empty




NASA's NSSDC Master Catalog

Two Line Element Set (TLE):
1  1359U 65034A   19049.84571846 -.00000014 +00000-0 -46052-2 0  9998
2  1359 032.1113 201.1961 0488608 142.7958 220.7412 09.17113028803057
Source of the keplerian elements: AFSPC